sat.trackr.live / text

‹ back to catalog

STARLINK-11171 [DTC]

NORAD 60069 · 2024-113L

PAYLOAD ACTIVE UNKNOWN

§ Identity

Operator
Country
US
Launch date
2024-06-19
Launch site
AFWTR
Launch vehicle
Mass (kg)
RCS (m²)

Purposes: comms

External: N2YO · Heavens-Above · Gunter

§ Orbital elements

Epoch: 2026-05-25T01:41:58.721856Z

Period
91.74 min
Inclination
53.1598°
Eccentricity
0.0001041
Mean motion
15.69719846 rev/d
Perigee alt
359.0 km
Apogee alt
360.4 km
Semi-major
6,737.8 km
B*
1.2728e-5
RAAN
174.9791°
Arg perigee
71.4367°
Mean anomaly
288.6764°
Rev number
11,155

§ Raw data

STARLINK-11171 [DTC]1 60069U 24113L   26145.07081854  .00000954  00000+0  12728-4 0  99942 60069  53.1598 174.9791 0001041  71.4367 288.6764 15.69719846111556

JSON: /api/v1/satellites/60069 · /tle

For live sub-satellite position, see the globe view (requires WebGL).

§ Visibility from observer

Set your observer location to see the next 7 days of passes ≥ 10°. The values pass through the URL so the page stays shareable.

No JS? Fill the form by hand. The geolocation button needs JavaScript.